Total_Precipitation_Accumulation
0.41 0.42 0.38 0.37 0.32 0.30 0.29 0.26 0.23 0.21 0.19 0.18 0.18 0.18 0.19 0.19 0.18 0.19 0.16 0.09 0.07 0.07 0.11 0.16 0.23 0.28 0.29 0.30 0.30 0.30 0.26 0.19 0.14 0.11 0.09 0.07 0.06 0.04 0.04 0.04 0.04 0.04 0.04
0.50 0.47 0.45 0.44 0.39 0.37 0.35 0.34 0.32 0.31 0.28 0.25 0.21 0.18 0.17 0.18 0.17 0.16 0.16 0.13 0.10 0.09 0.10 0.15 0.23 0.32 0.39 0.45 0.47 0.45 0.39 0.31 0.26 0.22 0.18 0.14 0.11 0.09 0.08 0.07 0.06 0.05 0.04
0.57 0.57 0.54 0.48 0.44 0.46 0.46 0.48 0.47 0.46 0.38 0.33 0.28 0.26 0.25 0.24 0.22 0.20 0.18 0.16 0.14 0.15 0.15 0.16 0.23 0.32 0.42 0.51 0.59 0.63 0.59 0.48 0.37 0.31 0.28 0.23 0.19 0.16 0.13 0.12 0.10 0.08 0.07
0.63 0.66 0.65 0.59 0.55 0.57 0.58 0.56 0.55 0.54 0.46 0.41 0.36 0.35 0.33 0.31 0.30 0.29 0.29 0.26 0.22 0.19 0.19 0.20 0.24 0.32 0.42 0.48 0.60 0.74 0.79 0.69 0.54 0.45 0.39 0.34 0.30 0.27 0.24 0.21 0.18 0.14 0.12
0.66 0.67 0.64 0.62 0.64 0.63 0.63 0.63 0.58 0.55 0.50 0.48 0.48 0.43 0.39 0.37 0.35 0.34 0.35 0.35 0.34 0.32 0.30 0.29 0.25 0.24 0.31 0.37 0.48 0.67 0.83 0.83 0.70 0.59 0.51 0.46 0.43 0.39 0.34 0.30 0.27 0.23 0.20
0.75 0.72 0.69 0.71 0.72 0.67 0.61 0.61 0.61 0.60 0.54 0.56 0.56 0.49 0.44 0.42 0.39 0.36 0.36 0.37 0.37 0.36 0.36 0.34 0.31 0.29 0.29 0.31 0.38 0.50 0.67 0.80 0.80 0.72 0.64 0.59 0.53 0.50 0.47 0.46 0.43 0.39 0.36
0.91 0.91 0.84 0.83 0.84 0.77 0.70 0.74 0.82 0.78 0.71 0.71 0.67 0.52 0.44 0.42 0.40 0.39 0.37 0.36 0.34 0.33 0.31 0.31 0.32 0.31 0.31 0.32 0.34 0.40 0.52 0.68 0.79 0.81 0.77 0.72 0.69 0.64 0.62 0.63 0.62 0.58 0.53
1.10 1.09 1.08 1.07 1.05 0.97 0.88 0.86 0.90 0.89 0.87 0.90 0.87 0.79 0.56 0.41 0.35 0.34 0.35 0.34 0.36 0.36 0.33 0.33 0.32 0.32 0.31 0.31 0.32 0.35 0.40 0.52 0.69 0.84 0.90 0.85 0.81 0.79 0.80 0.80 0.80 0.77 0.73
1.31 1.23 1.23 1.27 1.25 1.15 1.04 1.00 1.01 1.00 1.01 1.04 1.01 1.03 0.80 0.54 0.40 0.34 0.30 0.29 0.33 0.38 0.40 0.40 0.38 0.35 0.31 0.29 0.29 0.32 0.33 0.38 0.54 0.77 0.93 0.96 0.91 0.89 0.94 0.99 1.02 1.01 0.95
1.43 1.41 1.39 1.36 1.35 1.31 1.19 1.15 1.16 1.14 1.12 1.09 1.07 0.97 0.89 0.74 0.64 0.48 0.35 0.31 0.30 0.31 0.36 0.40 0.40 0.40 0.40 0.38 0.36 0.35 0.35 0.34 0.42 0.63 0.89 1.07 1.11 1.12 1.16 1.20 1.25 1.31 1.28
1.46 1.44 1.42 1.37 1.29 1.25 1.24 1.23 1.20 1.17 1.09 1.02 0.98 0.94 0.89 0.75 0.64 0.60 0.45 0.33 0.31 0.28 0.28 0.32 0.36 0.39 0.42 0.44 0.43 0.46 0.48 0.45 0.48 0.63 0.85 1.09 1.27 1.38 1.44 1.47 1.46 1.46 1.45
1.52 1.47 1.45 1.37 1.27 1.19 1.15 1.16 1.17 1.14 1.09 1.03 0.97 0.94 0.92 0.85 0.72 0.68 0.64 0.50 0.43 0.35 0.32 0.33 0.36 0.38 0.42 0.46 0.51 0.64 0.64 0.64 0.67 0.77 0.95 1.15 1.32 1.44 1.51 1.59 1.65 1.63 1.59
1.38 1.38 1.42 1.40 1.35 1.30 1.31 1.28 1.26 1.19 1.16 1.10 1.03 0.96 0.93 0.87 0.80 0.80 0.81 0.69 0.57 0.45 0.40 0.38 0.39 0.45 0.49 0.55 0.62 0.79 0.81 0.83 0.85 0.93 1.12 1.28 1.33 1.35 1.38 1.50 1.66 1.76 1.76
1.34 1.32 1.33 1.34 1.35 1.30 1.26 1.26 1.27 1.24 1.23 1.19 1.12 1.03 0.94 0.86 0.85 0.88 0.93 0.98 0.93 0.73 0.59 0.54 0.52 0.57 0.64 0.72 0.86 0.99 0.90 1.01 1.03 1.11 1.24 1.40 1.35 1.24 1.19 1.25 1.38 1.52 1.54
1.32 1.30 1.29 1.23 1.21 1.19 1.16 1.15 1.15 1.12 1.11 1.11 1.07 1.04 0.99 0.93 0.93 0.97 1.03 1.15 1.29 1.21 0.95 0.76 0.73 0.75 0.81 0.88 1.01 0.97 0.91 1.10 1.13 1.13 1.18 1.19 1.12 1.05 1.02 1.04 1.08 1.15 1.20
1.07 1.13 1.16 1.15 1.11 1.09 1.07 1.06 1.02 0.99 0.98 0.94 0.92 0.95 0.96 0.95 0.98 1.00 1.06 1.15 1.26 1.34 1.21 0.89 0.77 0.80 0.90 0.97 1.09 0.98 0.92 1.06 1.04 1.04 1.04 0.99 0.93 0.90 0.88 0.87 0.85 0.86 0.89
0.86 0.91 1.01 1.07 1.05 1.03 1.01 0.99 0.95 0.91 0.89 0.86 0.85 0.86 0.88 0.87 0.92 0.95 0.99 1.07 1.18 1.31 1.37 1.13 0.96 0.94 0.98 0.97 0.96 0.87 0.80 0.80 0.79 0.87 0.83 0.79 0.75 0.73 0.72 0.72 0.73 0.75 0.76
0.78 0.78 0.77 0.80 0.86 0.89 0.90 0.91 0.89 0.85 0.82 0.80 0.79 0.81 0.82 0.84 0.89 0.93 1.00 1.07 1.13 1.20 1.25 1.16 0.98 0.89 0.83 0.76 0.72 0.68 0.62 0.60 0.58 0.69 0.66 0.61 0.59 0.56 0.54 0.56 0.59 0.61 0.62
0.61 0.66 0.65 0.64 0.64 0.64 0.66 0.71 0.77 0.79 0.78 0.76 0.78 0.82 0.84 0.87 0.91 0.94 1.00 1.05 1.07 1.05 1.03 0.97 0.83 0.71 0.65 0.61 0.61 0.57 0.51 0.49 0.47 0.54 0.56 0.52 0.50 0.47 0.45 0.45 0.47 0.49 0.51
0.36 0.39 0.44 0.47 0.50 0.52 0.52 0.53 0.57 0.65 0.72 0.76 0.78 0.82 0.87 0.95 1.02 1.05 1.06 1.04 1.00 0.96 0.90 0.86 0.78 0.68 0.59 0.52 0.51 0.52 0.49 0.43 0.40 0.38 0.44 0.44 0.44 0.43 0.40 0.37 0.35 0.36 0.40
0.17 0.21 0.26 0.30 0.34 0.39 0.43 0.47 0.48 0.52 0.57 0.65 0.74 0.82 0.88 0.98 1.01 0.95 0.87 0.80 0.75 0.73 0.73 0.74 0.69 0.60 0.52 0.47 0.45 0.41 0.40 0.39 0.37 0.34 0.35 0.35 0.34 0.33 0.32 0.33 0.33 0.33 0.34
0.12 0.14 0.18 0.22 0.27 0.32 0.44 0.44 0.41 0.44 0.53 0.59 0.64 0.69 0.76 0.81 0.75 0.70 0.65 0.61 0.61 0.65 0.65 0.58 0.51 0.44 0.36 0.32 0.32 0.35 0.39 0.45 0.45 0.32 0.31 0.32 0.31 0.33 0.30 0.28 0.33 0.33 0.33
0.18 0.19 0.20 0.22 0.26 0.35 0.46 0.47 0.51 0.49 0.53 0.57 0.57 0.55 0.52 0.52 0.53 0.45 0.46 0.46 0.47 0.48 0.45 0.40 0.39 0.33 0.29 0.27 0.33 0.39 0.40 0.40 0.34 0.25 0.29 0.34 0.30 0.29 0.25 0.26 0.32 0.31 0.33
0.36 0.36 0.36 0.37 0.39 0.48 0.54 0.51 0.50 0.46 0.46 0.45 0.41 0.36 0.34 0.33 0.34 0.36 0.38 0.40 0.34 0.29 0.28 0.25 0.23 0.22 0.24 0.28 0.34 0.41 0.41 0.41 0.35 0.29 0.32 0.38 0.32 0.27 0.22 0.22 0.28 0.29 0.32
0.63 0.62 0.62 0.60 0.57 0.55 0.51 0.41 0.35 0.31 0.30 0.28 0.25 0.23 0.22 0.21 0.25 0.30 0.31 0.31 0.29 0.27 0.26 0.27 0.27 0.26 0.28 0.31 0.34 0.38 0.45 0.53 0.49 0.36 0.30 0.32 0.29 0.26 0.25 0.25 0.27 0.33 0.35
0.61 0.58 0.56 0.51 0.46 0.39 0.32 0.23 0.18 0.15 0.15 0.14 0.14 0.14 0.17 0.18 0.25 0.31 0.28 0.27 0.27 0.25 0.26 0.28 0.28 0.26 0.25 0.26 0.31 0.29 0.33 0.51 0.53 0.40 0.24 0.26 0.29 0.34 0.44 0.32 0.29 0.33 0.38